Location: Bruderhein
(53.8035°N, 112.9265°W)
Time: 10:41:54
(UTC+00:00)

DIWATA 2B (PO-101) - Pass Details

Date: 27 March 2023
Orbit: 581 x 593 km, 98.0° (Epoch: 29 May)

Event Time Altitude Azimuth Distance (km) Brightness Sun altitude
Exits shadow 10:51:01 16° 309° (NW) 1,567 ? -20.8°
Drops below altitude 10° 10:52:11 10° 321° (NW) 1,912 ? -20.6°
Sets 10:54:43 0° 336° (NNW) 2,818 ? -20.3°
